Tracking 18851 objects as of 25-Nov-2017
HD Live streaming from Space Station
objects crossing your sky now

ORBCOMM FM 17

Track ORBCOMM FM 17 now!
10-day predictions
ORBCOMM FM 17 is classified as:


NORAD ID: 25413
Int'l Code: 1998-046A
Perigee: 796.3 km
Apogee: 797.2 km
Inclination: 45.0 °
Period: 100.7 minutes
Semi major axis: 7167 km
RCS: 0.7619 m2 (medium)
Launch date: August 2, 1998
Source: ORBCOMM (ORB)
Launch site: Pegasus launched from Eastern Range Air Space (ERAS)
aabbcc
Your satellite tracking list
Your tracking list is empty




NASA's NSSDC Master Catalog

Two Line Element Set (TLE):
1 25413U 98046A   17328.84059762  .00000155  00000-0  11173-3 0  9991
2 25413  44.9959 257.4438 0000647 272.4931  87.5840 14.30630439  7625
Source of the keplerian elements: AFSPC